Torna al catalogo

FENGYUN 1C DEB *

AttivoPO
NORAD 47003·DEBRIS·🇨🇳 China

Lanciato May 10, 1999 da Taiyuan Satellite Launch Center

Loading…

Prossimi Passaggi (prossime 24 ore)

TLE

In scadenzaSource: Space-Track

Epoca: Sep 10, 2026, 11:20 UTC

1 47003U 99025FAD 26253.47285595  .00000306  00000-0  42813-3 0  9992
2 47003  98.8517 157.7703 0334024  94.4416 269.4951 13.42963027689532

Traccia FENGYUN 1C DEB * in tempo reale con AllMySat

Download on the App Store